| time (UTC) | temp C | wind direction | speed KPH | gust KPH | rain 1hr cm | rain 24hr cm | rain mn cm | humidity % | barometer mb |
| 20260904045514 | 25 | 91 | 0.0 | 0.0 | 0.00 | 0.28 | 0.25 | 96 | 1013.6 |
| 20260904045012 | 25 | 91 | 0.0 | 0.0 | 0.00 | 0.28 | 0.25 | 96 | 1013.7 |
| 20260904044513 | 25 | 91 | 0.0 | 0.0 | 0.00 | 0.30 | 0.25 | 96 | 1013.8 |
| 20260904044013 | 25 | 90 | 0.0 | 0.0 | 0.00 | 0.30 | 0.25 | 96 | 1013.7 |
| 20260904043512 | 25 | 90 | 0.0 | 0.0 | 0.00 | 0.30 | 0.25 | 96 | 1013.6 |
| 20260904043032 | 25 | 91 | 0.0 | 0.0 | 0.00 | 0.30 | 0.25 | 95 | 1013.7 |
| 20260904042515 | 25 | 91 | 0.0 | 0.0 | 0.00 | 0.30 | 0.25 | 95 | 1013.7 |
| 20260904042011 | 25 | 91 | 0.0 | 0.0 | 0.00 | 0.30 | 0.25 | 96 | 1013.7 |
| 20260904041535 | 25 | 90 | 0.0 | 0.0 | 0.00 | 0.30 | 0.25 | 96 | 1013.6 |
| 20260904041016 | 25 | 91 | 0.0 | 0.0 | 0.00 | 0.30 | 0.25 | 96 | 1013.7 |
| 20260904040508 | 25 | 90 | 0.0 | 0.0 | 0.00 | 0.30 | 0.25 | 95 | 1013.7 |
| 20260904040032 | 25 | 90 | 0.0 | 0.0 | 0.00 | 0.30 | 0.25 | 95 | 1013.7 |
| 20260904035515 | 25 | 90 | 0.0 | 0.0 | 0.00 | 0.33 | 0.25 | 95 | 1013.8 |
| 20260904035013 | 25 | 91 | 0.0 | 0.0 | 0.00 | 0.33 | 0.25 | 95 | 1013.9 |
| 20260904034531 | 25 | 91 | 0.0 | 0.0 | 0.00 | 0.33 | 0.25 | 95 | 1013.8 |
| 20260904034012 | 25 | 90 | 0.0 | 0.0 | 0.00 | 0.33 | 0.25 | 95 | 1013.7 |
| 20260904033517 | 25 | 91 | 0.0 | 0.0 | 0.00 | 0.33 | 0.25 | 95 | 1013.5 |
| 20260904033027 | 25 | 90 | 0.0 | 0.0 | 0.00 | 0.33 | 0.25 | 95 | 1013.5 |
| 20260904032509 | 25 | 91 | 0.0 | 0.0 | 0.00 | 0.33 | 0.25 | 95 | 1013.7 |
| 20260904032017 | 25 | 91 | 0.0 | 0.0 | 0.00 | 0.33 | 0.25 | 95 | 1013.6 |
| 20260904031526 | 25 | 90 | 0.0 | 0.0 | 0.00 | 0.33 | 0.25 | 95 | 1013.5 |
| 20260904031020 | 25 | 91 | 0.0 | 0.0 | 0.00 | 0.33 | 0.25 | 95 | 1013.5 |
| 20260904030513 | 25 | 91 | 0.0 | 0.0 | 0.00 | 0.33 | 0.25 | 95 | 1013.5 |
| 20260904030024 | 25 | 91 | 0.0 | 0.0 | 0.00 | 0.33 | 0.25 | 95 | 1013.5 |
| 20260904025515 | 25 | 91 | 0.0 | 0.0 | 0.00 | 0.33 | 0.25 | 95 | 1013.4 |
| 20260904025015 | 25 | 91 | 0.0 | 0.0 | 0.00 | 0.33 | 0.25 | 95 | 1013.3 |
| 20260904024516 | 25 | 90 | 0.0 | 0.0 | 0.00 | 0.33 | 0.25 | 95 | 1013.4 |
| 20260904024017 | 25 | 90 | 0.0 | 0.0 | 0.00 | 0.33 | 0.25 | 95 | 1013.3 |
| 20260904023512 | 25 | 91 | 0.0 | 0.0 | 0.00 | 0.33 | 0.25 | 95 | 1013.2 |
| 20260904023034 | 25 | 90 | 0.0 | 0.0 | 0.00 | 0.33 | 0.25 | 95 | 1013.2 |
| 20260904022516 | 25 | 91 | 0.0 | 0.0 | 0.00 | 0.33 | 0.25 | 94 | 1013.1 |
| 20260904022009 | 25 | 91 | 0.0 | 0.0 | 0.00 | 0.33 | 0.25 | 94 | 1013.1 |
| 20260904021537 | 25 | 90 | 0.0 | 0.0 | 0.00 | 0.33 | 0.25 | 94 | 1013.0 |
| 20260904021017 | 25 | 91 | 0.0 | 0.0 | 0.00 | 0.33 | 0.25 | 94 | 1013.0 |
| 20260904020516 | 25 | 91 | 0.0 | 0.0 | 0.00 | 0.33 | 0.25 | 94 | 1012.9 |
| 20260904020011 | 25 | 91 | 0.0 | 0.0 | 0.00 | 0.33 | 0.25 | 94 | 1012.8 |
| 20260904015512 | 25 | 90 | 0.0 | 0.0 | 0.00 | 0.33 | 0.25 | 94 | 1012.9 |
| 20260904015010 | 25 | 91 | 0.0 | 0.0 | 0.00 | 0.33 | 0.25 | 94 | 1012.8 |
| 20260904014516 | 25 | 91 | 0.0 | 0.0 | 0.00 | 0.33 | 0.25 | 94 | 1012.8 |
| 20260904014012 | 25 | 91 | 0.0 | 0.0 | 0.00 | 0.33 | 0.25 | 94 | 1012.5 |
| 20260904013505 | 25 | 91 | 0.0 | 0.0 | 0.00 | 0.33 | 0.25 | 94 | 1012.6 |
| 20260904013006 | 25 | 91 | 0.0 | 0.0 | 0.00 | 0.33 | 0.25 | 94 | 1012.7 |
| 20260904012508 | 25 | 91 | 0.0 | 0.0 | 0.00 | 0.33 | 0.25 | 94 | 1012.5 |
| 20260904012004 | 25 | 90 | 0.0 | 0.0 | 0.00 | 0.33 | 0.25 | 94 | 1012.5 |
| 20260904011529 | 25 | 91 | 0.0 | 0.0 | 0.00 | 0.33 | 0.25 | 93 | 1012.5 |
| 20260904011005 | 25 | 90 | 0.0 | 0.0 | 0.00 | 0.33 | 0.25 | 93 | 1012.6 |
| 20260904010503 | 25 | 91 | 0.0 | 0.0 | 0.00 | 0.33 | 0.25 | 93 | 1012.6 |
| 20260904010024 | 25 | 91 | 0.0 | 0.0 | 0.00 | 0.33 | 0.25 | 93 | 1012.6 |
| 20260904005507 | 25 | 91 | 0.0 | 0.0 | 0.00 | 0.33 | 0.25 | 93 | 1012.5 |
| 20260904005003 | 25 | 91 | 0.0 | 0.0 | 0.00 | 0.33 | 0.25 | 93 | 1012.6 |
| 20260904004520 | 25 | 90 | 0.0 | 0.0 | 0.00 | 0.33 | 0.25 | 92 | 1012.6 |
| 20260904004006 | 25 | 91 | 0.0 | 0.0 | 0.00 | 0.36 | 0.25 | 92 | 1012.6 |
| 20260904003512 | 25 | 91 | 0.0 | 0.0 | 0.00 | 0.41 | 0.25 | 92 | 1012.6 |
| 20260904003018 | 26 | 91 | 0.0 | 0.0 | 0.00 | 0.71 | 0.25 | 92 | 1012.7 |
| 20260904002503 | 26 | 91 | 0.0 | 0.0 | 0.00 | 1.75 | 0.25 | 92 | 1012.7 |
| 20260904002016 | 26 | 91 | 0.0 | 0.0 | 0.00 | 2.54 | 0.25 | 92 | 1012.7 |
| 20260904001516 | 26 | 91 | 0.0 | 0.0 | 0.00 | 2.62 | 0.25 | 91 | 1012.7 |
| 20260904001015 | 26 | 91 | 0.0 | 0.0 | 0.00 | 2.62 | 0.25 | 91 | 1012.9 |
| 20260904000511 | 26 | 91 | 0.0 | 0.0 | 0.00 | 2.62 | 0.25 | 91 | 1012.8 |
| 20260904000014 | 26 | 91 | 0.0 | 0.0 | 0.00 | 2.62 | 0.25 | 91 | 1012.8 |
| 20260903235509 | 26 | 91 | 0.0 | 0.0 | 0.00 | 2.62 | 0.25 | 91 | 1012.8 |
| 20260903235008 | 26 | 91 | 0.0 | 0.0 | 0.00 | 2.62 | 0.25 | 91 | 1012.9 |
| 20260903234509 | 26 | 90 | 0.0 | 0.0 | 0.00 | 2.62 | 0.25 | 91 | 1013.0 |
| 20260903234013 | 26 | 91 | 0.0 | 0.0 | 0.00 | 2.62 | 0.25 | 91 | 1012.9 |
| 20260903233506 | 26 | 91 | 0.0 | 0.0 | 0.00 | 2.62 | 0.25 | 91 | 1013.0 |
| 20260903233029 | 26 | 91 | 0.0 | 0.0 | 0.00 | 2.62 | 0.25 | 90 | 1013.0 |
| 20260903232510 | 26 | 91 | 0.0 | 0.0 | 0.00 | 2.62 | 0.25 | 91 | 1013.1 |
| 20260903232005 | 26 | 67 | 0.0 | 0.0 | 0.00 | 2.62 | 0.25 | 91 | 1013.1 |
| 20260903231528 | 26 | 67 | 0.0 | 0.0 | 0.00 | 2.62 | 0.25 | 90 | 1013.1 |
| 20260903231008 | 26 | 67 | 0.0 | 0.0 | 0.00 | 2.62 | 0.25 | 91 | 1013.1 |
| 20260903230503 | 26 | 67 | 0.0 | 0.0 | 0.00 | 2.62 | 0.25 | 91 | 1013.1 |
| 20260903230027 | 26 | 67 | 0.0 | 0.0 | 0.00 | 2.62 | 0.25 | 91 | 1013.2 |
| 20260903225508 | 26 | 65 | 0.0 | 0.0 | 0.00 | 2.62 | 0.25 | 91 | 1013.0 |
| 20260903225018 | 26 | 65 | 0.0 | 0.0 | 0.00 | 2.62 | 0.25 | 91 | 1013.1 |
| 20260903224520 | 26 | 65 | 0.0 | 0.0 | 0.00 | 2.62 | 0.25 | 91 | 1013.1 |
| 20260903224003 | 26 | 62 | 0.0 | 0.0 | 0.00 | 2.62 | 0.25 | 91 | 1013.1 |
| 20260903223515 | 26 | 60 | 0.0 | 0.0 | 0.00 | 2.62 | 0.25 | 91 | 1013.0 |
| 20260903223022 | 25 | 83 | 0.0 | 0.0 | 0.00 | 2.62 | 0.25 | 91 | 1012.9 |
| 20260903222504 | 25 | 72 | 0.0 | 0.0 | 0.00 | 2.62 | 0.25 | 91 | 1012.8 |
| 20260903222013 | 26 | 76 | 0.0 | 0.0 | 0.00 | 2.62 | 0.25 | 91 | 1013.0 |
| 20260903221522 | 26 | 75 | 0.0 | 0.0 | 0.00 | 2.62 | 0.25 | 92 | 1013.1 |
| 20260903221013 | 25 | 75 | 0.0 | 0.0 | 0.00 | 2.62 | 0.25 | 93 | 1013.0 |
| 20260903220515 | 25 | 75 | 0.0 | 0.0 | 0.00 | 2.62 | 0.25 | 92 | 1013.1 |
| 20260903220012 | 25 | 82 | 0.0 | 0.0 | 0.00 | 2.62 | 0.25 | 93 | 1013.2 |
| 20260903215516 | 25 | 84 | 0.0 | 0.0 | 0.00 | 2.62 | 0.25 | 93 | 1013.3 |
| 20260903215010 | 25 | 84 | 0.0 | 0.0 | 0.00 | 2.62 | 0.25 | 94 | 1013.4 |
| 20260903214533 | 25 | 84 | 0.0 | 0.0 | 0.00 | 2.62 | 0.25 | 94 | 1013.5 |
| 20260903214020 | 25 | 84 | 0.0 | 0.0 | 0.00 | 2.62 | 0.25 | 94 | 1013.5 |
| 20260903213511 | 25 | 84 | 0.0 | 0.0 | 0.00 | 2.62 | 0.25 | 95 | 1013.5 |
| 20260903213029 | 25 | 84 | 0.0 | 0.0 | 0.00 | 2.62 | 0.25 | 95 | 1013.6 |
| 20260903212512 | 24 | 84 | 0.0 | 0.0 | 0.00 | 2.62 | 0.25 | 95 | 1013.6 |
| 20260903212009 | 24 | 84 | 0.0 | 0.0 | 0.00 | 2.62 | 0.25 | 95 | 1013.8 |
| 20260903211528 | 24 | 84 | 0.0 | 0.0 | 0.00 | 2.62 | 0.25 | 95 | 1013.8 |
| 20260903211009 | 24 | 84 | 0.0 | 0.0 | 0.00 | 2.62 | 0.25 | 95 | 1013.9 |
| 20260903210517 | 24 | 84 | 0.0 | 0.0 | 0.00 | 2.62 | 0.25 | 95 | 1014.0 |
| 20260903210028 | 24 | 84 | 0.0 | 0.0 | 0.00 | 2.62 | 0.25 | 95 | 1013.9 |
| 20260903205508 | 24 | 84 | 0.0 | 0.0 | 0.00 | 2.62 | 0.25 | 95 | 1014.1 |
| 20260903205014 | 24 | 84 | 0.0 | 0.0 | 0.00 | 2.62 | 0.25 | 95 | 1014.0 |
| 20260903204528 | 24 | 84 | 0.0 | 0.0 | 0.00 | 2.62 | 0.25 | 95 | 1014.0 |
| 20260903204007 | 24 | 84 | 0.0 | 0.0 | 0.00 | 2.62 | 0.25 | 95 | 1014.1 |
| 20260903203512 | 24 | 84 | 0.0 | 0.0 | 0.00 | 2.62 | 0.25 | 95 | 1014.2 |
| 20260903203018 | 24 | 84 | 0.0 | 0.0 | 0.00 | 2.62 | 0.25 | 95 | 1014.0 |
| 20260903202516 | 24 | 84 | 0.0 | 0.0 | 0.00 | 2.62 | 0.25 | 95 | 1014.1 |
| 20260903202012 | 24 | 84 | 0.0 | 0.0 | 0.00 | 2.62 | 0.25 | 95 | 1014.2 |
| 20260903201517 | 24 | 84 | 0.0 | 0.0 | 0.00 | 2.62 | 0.25 | 95 | 1014.2 |
| 20260903201018 | 24 | 84 | 0.0 | 0.0 | 0.00 | 2.62 | 0.25 | 95 | 1014.2 |
| 20260903200513 | 24 | 84 | 0.0 | 0.0 | 0.00 | 2.62 | 0.25 | 95 | 1014.1 |
| 20260903200033 | 24 | 84 | 0.0 | 0.0 | 0.00 | 2.62 | 0.25 | 96 | 1014.0 |
| 20260903195514 | 24 | 84 | 0.0 | 0.0 | 0.00 | 2.62 | 0.25 | 96 | 1014.1 |
| 20260903195015 | 24 | 84 | 0.0 | 0.0 | 0.00 | 2.62 | 0.25 | 95 | 1014.1 |
| 20260903194531 | 24 | 84 | 0.0 | 0.0 | 0.00 | 2.62 | 0.25 | 95 | 1014.1 |
| 20260903194013 | 24 | 84 | 0.0 | 0.0 | 0.00 | 2.62 | 0.25 | 95 | 1014.2 |
| 20260903193509 | 24 | 84 | 0.0 | 0.0 | 0.00 | 2.62 | 0.25 | 95 | 1014.2 |
| 20260903193032 | 24 | 84 | 0.0 | 0.0 | 0.00 | 2.62 | 0.25 | 95 | 1014.4 |
| 20260903192510 | 24 | 84 | 0.0 | 0.0 | 0.00 | 2.62 | 0.25 | 95 | 1014.6 |
| 20260903192014 | 24 | 84 | 0.0 | 0.0 | 0.03 | 2.62 | 0.25 | 95 | 1014.8 |
| 20260903191528 | 24 | 84 | 0.0 | 0.0 | 0.10 | 2.62 | 0.25 | 95 | 1015.0 |
| 20260903191012 | 24 | 84 | 0.0 | 0.0 | 0.13 | 2.62 | 0.25 | 95 | 1014.9 |
| 20260903190513 | 23 | 83 | 0.0 | 0.0 | 0.13 | 2.62 | 0.25 | 94 | 1014.7 |
| 20260903190031 | 24 | 81 | 0.0 | 0.0 | 0.13 | 2.62 | 0.25 | 94 | 1014.7 |
| 20260903185509 | 23 | 44 | 0.0 | 0.0 | 0.13 | 2.62 | 0.25 | 94 | 1014.8 |
| 20260903185013 | 23 | 84 | 0.0 | 0.0 | 0.13 | 2.62 | 0.25 | 94 | 1015.0 |
| 20260903184527 | 23 | 85 | 0.0 | 0.0 | 0.13 | 2.62 | 0.25 | 93 | 1015.1 |
| 20260903184017 | 23 | 90 | 0.0 | 0.0 | 0.13 | 2.62 | 0.25 | 92 | 1015.2 |
| 20260903183513 | 24 | 94 | 0.0 | 0.0 | 0.13 | 2.62 | 0.25 | 91 | 1015.2 |
| 20260903183022 | 24 | 86 | 0.0 | 0.0 | 0.13 | 2.62 | 0.25 | 90 | 1015.3 |
| 20260903182519 | 25 | 84 | 0.0 | 1.6 | 0.13 | 2.62 | 0.25 | 88 | 1015.2 |
| 20260903182013 | 25 | 118 | 0.0 | 1.6 | 0.10 | 2.59 | 0.23 | 86 | 1015.3 |
| 20260903181520 | 26 | 70 | 0.0 | 1.6 | 0.03 | 2.51 | 0.15 | 88 | 1015.2 |
| 20260903181016 | 27 | 338 | 0.0 | 1.6 | 0.00 | 2.49 | 0.13 | 86 | 1015.2 |
| 20260903180514 | 27 | 194 | 0.0 | 0.0 | 0.00 | 2.49 | 0.13 | 85 | 1015.3 |
| 20260903180045 | 28 | 194 | 0.0 | 0.0 | 0.00 | 2.49 | 0.13 | 82 | 1015.3 |
| 20260903175515 | 28 | 194 | 0.0 | 0.0 | 0.00 | 2.49 | 0.13 | 81 | 1015.2 |
| 20260903175011 | 28 | 179 | 0.0 | 0.0 | 0.00 | 2.49 | 0.13 | 81 | 1015.1 |
| 20260903174535 | 28 | 155 | 0.0 | 0.0 | 0.00 | 2.49 | 0.13 | 88 | 1015.0 |
| 20260903174013 | 28 | 155 | 0.0 | 0.0 | 0.00 | 2.49 | 0.13 | 87 | 1015.0 |
| 20260903173520 | 28 | 211 | 0.0 | 0.0 | 0.00 | 2.49 | 0.13 | 87 | 1015.1 |
| 20260903173030 | 28 | 211 | 0.0 | 0.0 | 0.00 | 2.49 | 0.13 | 86 | 1015.0 |
| 20260903172511 | 29 | 212 | 0.0 | 0.0 | 0.00 | 2.49 | 0.13 | 86 | 1014.9 |
| 20260903172020 | 29 | 210 | 0.0 | 0.0 | 0.00 | 2.49 | 0.13 | 85 | 1014.9 |
| 20260903171540 | 29 | 210 | 0.0 | 0.0 | 0.00 | 2.49 | 0.13 | 86 | 1014.9 |
| 20260903171011 | 29 | 210 | 0.0 | 0.0 | 0.00 | 2.49 | 0.13 | 85 | 1014.8 |
| 20260903170518 | 29 | 210 | 0.0 | 0.0 | 0.00 | 2.49 | 0.13 | 85 | 1014.8 |
| 20260903170012 | 29 | 213 | 0.0 | 0.0 | 0.00 | 2.49 | 0.13 | 85 | 1015.0 |
| 20260903165510 | 29 | 214 | 0.0 | 0.0 | 0.00 | 2.49 | 0.13 | 87 | 1015.0 |
| 20260903165004 | 29 | 212 | 0.0 | 0.0 | 0.00 | 2.49 | 0.13 | 89 | 1015.0 |
| 20260903164525 | 28 | 212 | 0.0 | 1.6 | 0.00 | 2.49 | 0.13 | 90 | 1015.1 |
| 20260903164008 | 28 | 212 | 0.0 | 3.2 | 0.00 | 2.49 | 0.13 | 91 | 1015.3 |
| 20260903163505 | 28 | 208 | 0.0 | 3.2 | 0.00 | 2.49 | 0.13 | 90 | 1015.3 |
| 20260903163027 | 28 | 220 | 0.0 | 0.0 | 0.00 | 2.49 | 0.13 | 92 | 1015.1 |
| 20260903162506 | 28 | 220 | 0.0 | 0.0 | 0.00 | 2.49 | 0.13 | 92 | 1014.9 |
| 20260903162004 | 28 | 329 | 0.0 | 0.0 | 0.00 | 2.49 | 0.13 | 94 | 1014.8 |
| 20260903161521 | 27 | 330 | 0.0 | 0.0 | 0.00 | 2.49 | 0.13 | 94 | 1014.8 |
| 20260903161005 | 27 | 329 | 0.0 | 0.0 | 0.00 | 2.49 | 0.13 | 95 | 1015.0 |
| 20260903160514 | 27 | 329 | 0.0 | 0.0 | 0.00 | 2.49 | 0.13 | 95 | 1015.1 |
| 20260903160021 | 27 | 329 | 0.0 | 0.0 | 0.00 | 2.49 | 0.13 | 96 | 1015.1 |
| 20260903155504 | 27 | 329 | 0.0 | 0.0 | 0.00 | 2.49 | 0.13 | 96 | 1015.2 |
| 20260903155011 | 27 | 333 | 0.0 | 0.0 | 0.00 | 2.49 | 0.13 | 96 | 1015.1 |
| 20260903154514 | 27 | 334 | 0.0 | 0.0 | 0.00 | 2.49 | 0.13 | 97 | 1015.2 |
| 20260903154015 | 27 | 334 | 0.0 | 0.0 | 0.00 | 2.49 | 0.13 | 97 | 1015.2 |
| 20260903153509 | 27 | 333 | 0.0 | 0.0 | 0.00 | 2.49 | 0.13 | 97 | 1015.2 |
| 20260903153012 | 27 | 334 | 0.0 | 0.0 | 0.00 | 2.49 | 0.13 | 97 | 1015.3 |
| 20260903152512 | 27 | 334 | 0.0 | 0.0 | 0.00 | 2.49 | 0.13 | 97 | 1015.3 |
| 20260903152008 | 27 | 334 | 0.0 | 0.0 | 0.00 | 2.49 | 0.13 | 97 | 1015.3 |
| 20260903151513 | 27 | 334 | 0.0 | 0.0 | 0.00 | 2.49 | 0.13 | 98 | 1015.3 |
| 20260903151012 | 26 | 334 | 0.0 | 0.0 | 0.00 | 2.49 | 0.13 | 97 | 1015.3 |
| 20260903150506 | 26 | 334 | 0.0 | 0.0 | 0.00 | 2.49 | 0.13 | 98 | 1015.4 |
| 20260903150055 | 26 | 334 | 0.0 | 0.0 | 0.00 | 2.49 | 0.13 | 98 | 1015.5 |
| 20260903145509 | 26 | 334 | 0.0 | 0.0 | 0.00 | 2.49 | 0.13 | 98 | 1015.4 |
| 20260903145003 | 26 | 334 | 0.0 | 0.0 | 0.00 | 2.49 | 0.13 | 98 | 1015.5 |
| 20260903144534 | 26 | 334 | 0.0 | 0.0 | 0.00 | 2.49 | 0.13 | 98 | 1015.5 |
| 20260903144012 | 26 | 334 | 0.0 | 0.0 | 0.00 | 2.49 | 0.13 | 98 | 1015.5 |
| 20260903143504 | 26 | 334 | 0.0 | 0.0 | 0.00 | 2.49 | 0.13 | 98 | 1015.6 |
| 20260903143029 | 26 | 334 | 0.0 | 0.0 | 0.00 | 2.49 | 0.13 | 98 | 1015.6 |
| 20260903142506 | 26 | 334 | 0.0 | 0.0 | 0.00 | 2.49 | 0.13 | 98 | 1015.5 |
| 20260903142014 | 26 | 334 | 0.0 | 0.0 | 0.00 | 2.49 | 0.13 | 98 | 1015.4 |
| 20260903141528 | 26 | 334 | 0.0 | 0.0 | 0.00 | 2.49 | 0.13 | 98 | 1015.5 |
| 20260903141003 | 26 | 334 | 0.0 | 0.0 | 0.00 | 2.49 | 0.13 | 98 | 1015.4 |
| 20260903140513 | 26 | 334 | 0.0 | 0.0 | 0.00 | 2.49 | 0.13 | 98 | 1015.3 |
| 20260903140034 | 26 | 334 | 0.0 | 0.0 | 0.00 | 2.49 | 0.13 | 98 | 1015.2 |
| 20260903135516 | 26 | 334 | 0.0 | 0.0 | 0.00 | 2.49 | 0.13 | 98 | 1015.1 |
| 20260903135013 | 26 | 334 | 0.0 | 0.0 | 0.00 | 2.49 | 0.13 | 98 | 1015.1 |
| 20260903134529 | 25 | 334 | 0.0 | 0.0 | 0.00 | 2.49 | 0.13 | 98 | 1015.1 |
| 20260903134019 | 25 | 334 | 0.0 | 0.0 | 0.00 | 2.49 | 0.13 | 98 | 1015.1 |
| 20260903133512 | 25 | 334 | 0.0 | 0.0 | 0.00 | 2.49 | 0.13 | 98 | 1015.0 |
| 20260903133030 | 25 | 334 | 0.0 | 0.0 | 0.00 | 2.49 | 0.13 | 98 | 1015.0 |
| 20260903132513 | 25 | 334 | 0.0 | 0.0 | 0.00 | 2.49 | 0.13 | 98 | 1015.0 |
| 20260903132018 | 25 | 334 | 0.0 | 0.0 | 0.00 | 2.49 | 0.13 | 98 | 1014.9 |
| 20260903131532 | 25 | 334 | 0.0 | 0.0 | 0.00 | 2.49 | 0.13 | 98 | 1015.0 |
| 20260903131012 | 25 | 334 | 0.0 | 0.0 | 0.00 | 2.49 | 0.13 | 98 | 1014.9 |
| 20260903130515 | 25 | 314 | 0.0 | 0.0 | 0.00 | 2.49 | 0.13 | 98 | 1015.0 |
| 20260903130031 | 25 | 314 | 0.0 | 0.0 | 0.00 | 2.49 | 0.13 | 98 | 1014.9 |
| 20260903125510 | 25 | 314 | 0.0 | 0.0 | 0.00 | 2.49 | 0.13 | 98 | 1014.8 |
| 20260903125015 | 25 | 314 | 0.0 | 0.0 | 0.00 | 2.49 | 0.13 | 98 | 1014.7 |
| 20260903124533 | 25 | 314 | 0.0 | 0.0 | 0.00 | 2.49 | 0.13 | 98 | 1014.6 |
| 20260903124017 | 25 | 314 | 0.0 | 0.0 | 0.00 | 2.49 | 0.13 | 98 | 1014.5 |
| 20260903123519 | 25 | 314 | 0.0 | 0.0 | 0.00 | 2.49 | 0.13 | 98 | 1014.5 |
| 20260903123034 | 25 | 314 | 0.0 | 0.0 | 0.00 | 2.49 | 0.13 | 98 | 1014.4 |
| 20260903122516 | 25 | 314 | 0.0 | 0.0 | 0.00 | 2.49 | 0.13 | 98 | 1014.3 |
| 20260903122016 | 25 | 314 | 0.0 | 0.0 | 0.00 | 2.49 | 0.13 | 98 | 1014.2 |
| 20260903121527 | 25 | 314 | 0.0 | 0.0 | 0.00 | 2.49 | 0.13 | 97 | 1014.1 |
| 20260903121017 | 25 | 314 | 0.0 | 0.0 | 0.00 | 2.49 | 0.13 | 97 | 1014.1 |
| 20260903120518 | 25 | 314 | 0.0 | 0.0 | 0.00 | 2.49 | 0.13 | 97 | 1014.1 |
| 20260903120031 | 25 | 314 | 0.0 | 0.0 | 0.00 | 2.49 | 0.13 | 97 | 1014.1 |
| 20260903115514 | 25 | 314 | 0.0 | 0.0 | 0.00 | 2.49 | 0.13 | 97 | 1014.1 |
| 20260903115012 | 25 | 314 | 0.0 | 0.0 | 0.00 | 2.49 | 0.13 | 98 | 1014.0 |
| 20260903114531 | 25 | 314 | 0.0 | 0.0 | 0.00 | 2.49 | 0.13 | 97 | 1014.0 |
| 20260903114014 | 25 | 314 | 0.0 | 0.0 | 0.00 | 2.49 | 0.13 | 97 | 1014.0 |
| 20260903113512 | 25 | 314 | 0.0 | 0.0 | 0.00 | 2.49 | 0.13 | 97 | 1014.0 |
| 20260903113031 | 25 | 314 | 0.0 | 0.0 | 0.00 | 2.49 | 0.13 | 97 | 1014.0 |
| 20260903112516 | 25 | 314 | 0.0 | 0.0 | 0.00 | 2.49 | 0.13 | 97 | 1014.0 |
| 20260903112016 | 25 | 314 | 0.0 | 0.0 | 0.00 | 2.49 | 0.13 | 97 | 1014.0 |
| 20260903111533 | 25 | 314 | 0.0 | 0.0 | 0.00 | 2.49 | 0.13 | 97 | 1014.1 |
| 20260903111013 | 25 | 314 | 0.0 | 0.0 | 0.00 | 2.49 | 0.13 | 97 | 1014.0 |
| 20260903110517 | 25 | 314 | 0.0 | 0.0 | 0.00 | 2.49 | 0.13 | 97 | 1014.0 |
| 20260903110007 | 25 | 314 | 0.0 | 0.0 | 0.00 | 2.49 | 0.13 | 97 | 1014.0 |
| 20260903105513 | 25 | 314 | 0.0 | 0.0 | 0.00 | 2.49 | 0.13 | 97 | 1013.8 |
| 20260903105008 | 25 | 314 | 0.0 | 0.0 | 0.00 | 2.49 | 0.13 | 97 | 1013.7 |
| 20260903104528 | 25 | 314 | 0.0 | 0.0 | 0.00 | 2.49 | 0.13 | 97 | 1013.7 |
| 20260903104012 | 25 | 314 | 0.0 | 0.0 | 0.00 | 2.49 | 0.13 | 97 | 1013.7 |
| 20260903103506 | 25 | 314 | 0.0 | 0.0 | 0.00 | 2.49 | 0.13 | 97 | 1013.7 |
| 20260903103028 | 25 | 314 | 0.0 | 0.0 | 0.00 | 2.49 | 0.13 | 97 | 1013.8 |
| 20260903102508 | 25 | 314 | 0.0 | 0.0 | 0.00 | 2.49 | 0.13 | 97 | 1013.8 |
| 20260903102004 | 25 | 314 | 0.0 | 0.0 | 0.00 | 2.49 | 0.13 | 97 | 1013.7 |
| 20260903101525 | 25 | 314 | 0.0 | 0.0 | 0.00 | 2.49 | 0.13 | 97 | 1013.7 |
| 20260903101012 | 25 | 314 | 0.0 | 0.0 | 0.00 | 2.49 | 0.13 | 97 | 1013.6 |
| 20260903100515 | 25 | 314 | 0.0 | 0.0 | 0.00 | 2.49 | 0.13 | 97 | 1013.6 |
| 20260903100030 | 25 | 314 | 0.0 | 0.0 | 0.00 | 2.49 | 0.13 | 97 | 1013.6 |
| 20260903095506 | 25 | 314 | 0.0 | 0.0 | 0.00 | 2.49 | 0.13 | 97 | 1013.6 |
| 20260903095014 | 25 | 314 | 0.0 | 0.0 | 0.00 | 2.49 | 0.13 | 97 | 1013.6 |
| 20260903094520 | 25 | 314 | 0.0 | 0.0 | 0.00 | 2.49 | 0.13 | 97 | 1013.6 |
| 20260903094005 | 25 | 314 | 0.0 | 0.0 | 0.00 | 2.49 | 0.13 | 97 | 1013.6 |
| 20260903093513 | 25 | 314 | 0.0 | 0.0 | 0.00 | 2.49 | 0.13 | 97 | 1013.6 |
| 20260903093014 | 25 | 314 | 0.0 | 0.0 | 0.00 | 2.49 | 0.13 | 97 | 1013.6 |
| 20260903092519 | 25 | 314 | 0.0 | 0.0 | 0.00 | 2.49 | 0.13 | 97 | 1013.6 |
| 20260903092015 | 25 | 314 | 0.0 | 0.0 | 0.00 | 2.49 | 0.13 | 97 | 1013.6 |
| 20260903091517 | 25 | 314 | 0.0 | 0.0 | 0.00 | 2.49 | 0.13 | 97 | 1013.6 |
| 20260903091012 | 25 | 314 | 0.0 | 0.0 | 0.00 | 2.49 | 0.13 | 97 | 1013.6 |
| 20260903090510 | 25 | 314 | 0.0 | 0.0 | 0.00 | 2.49 | 0.13 | 97 | 1013.6 |
| 20260903090032 | 25 | 314 | 0.0 | 0.0 | 0.00 | 2.49 | 0.13 | 97 | 1013.5 |
| 20260903085513 | 25 | 314 | 0.0 | 0.0 | 0.00 | 2.49 | 0.13 | 97 | 1013.6 |
| 20260903085012 | 25 | 314 | 0.0 | 0.0 | 0.00 | 2.49 | 0.13 | 97 | 1013.6 |
| 20260903084541 | 25 | 314 | 0.0 | 0.0 | 0.00 | 2.49 | 0.13 | 97 | 1013.7 |
| 20260903084009 | 25 | 314 | 0.0 | 0.0 | 0.00 | 2.49 | 0.13 | 97 | 1013.6 |
| 20260903083506 | 25 | 314 | 0.0 | 0.0 | 0.00 | 2.49 | 0.13 | 97 | 1013.6 |
| 20260903083027 | 25 | 314 | 0.0 | 0.0 | 0.00 | 2.49 | 0.13 | 97 | 1013.5 |
| 20260903082511 | 25 | 314 | 0.0 | 0.0 | 0.00 | 2.49 | 0.13 | 97 | 1013.6 |
| 20260903082017 | 25 | 314 | 0.0 | 0.0 | 0.00 | 2.49 | 0.13 | 97 | 1013.5 |
| 20260903081524 | 25 | 314 | 0.0 | 0.0 | 0.00 | 2.49 | 0.13 | 97 | 1013.5 |
| 20260903081006 | 25 | 314 | 0.0 | 0.0 | 0.00 | 2.49 | 0.13 | 97 | 1013.5 |
| 20260903080516 | 25 | 314 | 0.0 | 0.0 | 0.00 | 2.49 | 0.13 | 97 | 1013.5 |
| 20260903080024 | 25 | 314 | 0.0 | 0.0 | 0.00 | 2.49 | 0.13 | 97 | 1013.4 |
| 20260903075503 | 25 | 314 | 0.0 | 0.0 | 0.00 | 2.49 | 0.13 | 97 | 1013.4 |
| 20260903075015 | 25 | 314 | 0.0 | 0.0 | 0.00 | 2.49 | 0.13 | 97 | 1013.3 |
| 20260903074520 | 25 | 314 | 0.0 | 0.0 | 0.00 | 2.49 | 0.13 | 97 | 1013.3 |
| 20260903074015 | 25 | 314 | 0.0 | 0.0 | 0.00 | 2.49 | 0.13 | 97 | 1013.2 |
| 20260903073515 | 25 | 314 | 0.0 | 0.0 | 0.00 | 2.49 | 0.13 | 97 | 1013.2 |
| 20260903073017 | 25 | 314 | 0.0 | 0.0 | 0.00 | 2.49 | 0.13 | 97 | 1013.2 |
| 20260903072515 | 25 | 313 | 0.0 | 0.0 | 0.00 | 2.49 | 0.13 | 97 | 1013.3 |
| 20260903072011 | 25 | 314 | 0.0 | 0.0 | 0.00 | 2.49 | 0.13 | 97 | 1013.3 |
| 20260903071514 | 25 | 86 | 0.0 | 0.0 | 0.00 | 2.49 | 0.13 | 97 | 1013.3 |
| 20260903071011 | 25 | 86 | 0.0 | 0.0 | 0.00 | 2.49 | 0.13 | 97 | 1013.4 |
| 20260903070510 | 25 | 86 | 0.0 | 0.0 | 0.00 | 2.49 | 0.13 | 97 | 1013.4 |
| 20260903070033 | 25 | 86 | 0.0 | 0.0 | 0.03 | 2.49 | 0.13 | 97 | 1013.4 |
| 20260903065512 | 25 | 86 | 0.0 | 0.0 | 0.03 | 2.49 | 0.13 | 97 | 1013.5 |
| 20260903065013 | 25 | 86 | 0.0 | 0.0 | 0.03 | 2.49 | 0.13 | 97 | 1013.6 |
| 20260903064531 | 25 | 86 | 0.0 | 0.0 | 0.03 | 2.49 | 0.13 | 97 | 1013.6 |
| 20260903064011 | 25 | 86 | 0.0 | 0.0 | 0.03 | 2.49 | 0.13 | 97 | 1013.6 |
| 20260903063522 | 25 | 86 | 0.0 | 0.0 | 0.03 | 2.49 | 0.13 | 97 | 1013.6 |
| 20260903063031 | 25 | 86 | 0.0 | 0.0 | 0.03 | 2.49 | 0.13 | 97 | 1013.6 |
| 20260903062511 | 25 | 86 | 0.0 | 0.0 | 0.03 | 2.49 | 0.13 | 97 | 1013.6 |
| 20260903062017 | 25 | 86 | 0.0 | 0.0 | 0.03 | 2.49 | 0.13 | 97 | 1013.7 |
| 20260903061535 | 25 | 86 | 0.0 | 0.0 | 0.05 | 2.49 | 0.13 | 97 | 1013.8 |
| 20260903061019 | 25 | 86 | 0.0 | 0.0 | 0.05 | 2.49 | 0.13 | 97 | 1013.8 |
| 20260903060517 | 25 | 86 | 0.0 | 0.0 | 0.10 | 2.49 | 0.13 | 97 | 1013.7 |
| 20260903060037 | 25 | 86 | 0.0 | 0.0 | 0.10 | 2.46 | 0.10 | 97 | 1013.9 |
| 20260903055515 | 25 | 86 | 0.0 | 0.0 | 0.13 | 2.46 | 0.10 | 97 | 1013.9 |
| 20260903055015 | 25 | 86 | 0.0 | 0.0 | 0.13 | 2.46 | 0.10 | 97 | 1013.9 |
| 20260903054523 | 25 | 86 | 0.0 | 0.0 | 0.15 | 2.46 | 0.10 | 97 | 1013.9 |
| 20260903054014 | 24 | 86 | 0.0 | 0.0 | 0.15 | 2.46 | 0.10 | 97 | 1014.2 |
| 20260903053513 | 24 | 86 | 0.0 | 0.0 | 0.15 | 2.46 | 0.10 | 97 | 1014.2 |
| 20260903053029 | 24 | 86 | 0.0 | 0.0 | 0.15 | 2.46 | 0.10 | 97 | 1014.2 |
| 20260903052516 | 24 | 86 | 0.0 | 0.0 | 0.15 | 2.46 | 0.10 | 97 | 1014.2 |
| 20260903052014 | 24 | 86 | 0.0 | 0.0 | 0.15 | 2.46 | 0.10 | 97 | 1014.4 |
| 20260903051536 | 24 | 86 | 0.0 | 0.0 | 0.13 | 2.44 | 0.08 | 97 | 1014.5 |
| 20260903051015 | 24 | 86 | 0.0 | 0.0 | 0.13 | 2.44 | 0.08 | 97 | 1014.8 |
| 20260903050511 | 24 | 86 | 0.0 | 0.0 | 0.08 | 2.39 | 0.03 | 97 | 1014.9 |
| 20260903050035 | 24 | 86 | 0.0 | 0.0 | 0.05 | 2.36 | 0.00 | 97 | 1014.9 |